Station NWHC3 - 8465705 - New Haven, CT Image indicating link to RSS feed of recent meteorological observations for station NWHC3


Conditions at NWHC3 as of
(7:54 pm EDT)
2354 GMT on 05/17/2024:
     

Click on the graph icon in the table below to see a time series plot of the last five days of that observation.

5-day plot - Wind Direction Wind Direction (WDIR):SSE ( 160 deg true )
5-day plot - Wind Speed Wind Speed (WSPD): 1.9 kts
5-day plot - Wind Gust Wind Gust (GST): 6.0 kts
5-day plot - Atmospheric Pressure Atmospheric Pressure (PRES):29.96 in
5-day plot - Air Temperature Air Temperature (ATMP): 63.5 °F
5-day plot - Water Temperature Water Temperature (WTMP): 57.4 °F
5-day plot - Wind Speed at 10 Meters Wind Speed at 10 meters (WSPD10M): 1.9 kts
5-day plot - Wind Speed at 20 Meters Wind Speed at 20 meters (WSPD20M): 1.9 kts
5-day plot -  Wind Speed, Wind Gust and Atmospheric Pressure Combined plot of Wind Speed, Gust, and Air Pressure
NOS Water Level Observation Network Water Level
Previous observations
TIME
(EDT)
5-day plot - Wind Direction
WDIR
 
5-day plot - Wind Speed
WSPD
kts
5-day plot - Wind Gust
GST
kts
5-day plot - Wave Height
WVHT
ft
5-day plot - Dominant Wave Period
DPD
sec
5-day plot - Average Wave Period
APD
sec
5-day plot - Mean Wave Direction
MWD
 
5-day plot - Atmospheric Pressure
PRES
in
5-day plot - Pressure Tendency
PTDY
in
5-day plot - Air Temperature
ATMP
°F
5-day plot - Water Temperature
WTMP
°F
5-day plot - Dew Point
DEWP
°F
5-day plot - Salinity
SAL
psu
5-day plot - Visibility
VIS
nmi
5-day plot - Tide (above MLLW)
TIDE
ft
2024-05-17 07:48 pmSSE 4.1 6.0----29.96- 63.7 57.4----
2024-05-17 07:42 pmSSE 2.9 6.0----29.96- 63.7 57.6----
2024-05-17 07:36 pmSSE 6.0 8.0----29.96- 64.0 57.6----
2024-05-17 07:30 pm S 7.0 8.9----29.96- 64.4 57.7----
2024-05-17 07:24 pmSSE 4.1 7.0----29.96- 64.9 57.7----
2024-05-17 07:18 pm SE 5.1 6.0----29.96- 65.1 57.9----
2024-05-17 07:12 pmSSW 2.9 6.0----29.95- 64.0 57.9----
2024-05-17 07:06 pmSSW 5.1 6.0----29.95- 64.2 57.9----
2024-05-17 07:00 pmSSW 5.1 6.0----29.95+0.02 63.5 58.1----
2024-05-17 06:54 pmSSW 4.1 6.0----29.95- 64.2 58.1----
2024-05-17 06:48 pm SW 4.1 7.0----29.95- 64.4 58.1----
2024-05-17 06:42 pm S 5.1 6.0----29.95- 65.7 58.1----
2024-05-17 06:36 pm S 5.1 7.0----29.95- 65.7 58.1----
2024-05-17 06:30 pm-------29.95- 65.7 58.1----
2024-05-17 06:24 pm-------29.95- 65.8 58.1----
2024-05-17 06:18 pm S 5.1 6.0----29.95-- 58.1----
2024-05-17 06:12 pm S 5.1 6.0----29.95-- 58.1----
2024-05-17 06:06 pm S 5.1 7.0----29.94-- 58.1----
2024-05-17 06:00 pm S 6.0 8.9----29.94+0.00 66.0 58.1----
2024-05-17 05:54 pmSSW 6.0 7.0----29.95- 65.1 57.9----
2024-05-17 05:48 pmSSW 6.0 6.0----29.94- 64.9 57.9----
2024-05-17 05:42 pm S 6.0 7.0----29.94- 64.9 57.7----
2024-05-17 05:36 pmSSW 5.1 6.0----29.94- 64.6 57.7----
2024-05-17 05:30 pmSSW 5.1 6.0----29.95- 65.5 57.7----
2024-05-17 05:24 pmSSW 6.0 7.0----29.95- 65.7 57.7----
2024-05-17 05:18 pmSSW 7.0 7.0----29.95- 65.8 57.7----
2024-05-17 05:12 pm SW 5.1 7.0----29.94- 65.7 57.7----
2024-05-17 05:06 pm SW 7.0 8.0----29.95- 65.5 57.7----
2024-05-17 05:00 pm SW 7.0 8.9----29.94+0.01 65.5 57.7----
2024-05-17 04:54 pm SW 7.0 8.0----29.94- 64.8 57.6----
2024-05-17 04:48 pm SW 7.0 8.0----29.94- 65.1 57.6----
2024-05-17 04:42 pm SW 8.0 8.0----29.93- 64.9 57.6----
2024-05-17 04:36 pm SW 7.0 8.0----29.93- 65.3 57.6----
2024-05-17 04:30 pm SW 7.0 8.0----29.93- 64.9 57.6----
2024-05-17 04:24 pm SW 6.0 6.0----29.93- 63.9 57.6----
2024-05-17 04:18 pm SW 6.0 6.0----29.93- 63.3 57.6----
2024-05-17 04:12 pmSSW 4.1 6.0----29.93- 62.4 57.7----
2024-05-17 04:06 pm S 5.1 6.0----29.93- 62.4 57.9----
2024-05-17 04:00 pmSSW 4.1 5.1----29.93-0.01 63.0 58.1----
2024-05-17 03:54 pm SW 5.1 6.0----29.93- 63.3 58.3----
2024-05-17 03:48 pmSSW 5.1 7.0----29.93- 63.5 58.8----
2024-05-17 03:42 pmSSW 6.0 8.9----29.93- 63.3 59.4----
2024-05-17 03:36 pm SW 7.0 8.0----29.93- 63.0 60.3----
2024-05-17 03:30 pm SW 7.0 8.9----29.93- 63.0 61.5----
2024-05-17 03:24 pm SW 7.0 8.9----29.94- 62.6 61.7----
2024-05-17 03:18 pm SW 7.0 8.9----29.94- 62.6 61.5----
2024-05-17 03:12 pmSSW 6.0 7.0----29.94- 62.2 61.5----
2024-05-17 03:06 pm S 7.0 8.0----29.94- 61.7 61.3----
2024-05-17 03:00 pm SW 8.0 8.9----29.94+0.00 62.4 61.3----
2024-05-17 02:54 pm S 7.0 9.9----29.94- 61.5 61.0----
2024-05-17 02:48 pmSSW 8.9 9.9------- 60.8----
2024-05-17 02:42 pm SW 8.0 9.9------- 60.8----
2024-05-17 02:36 pm SW 8.0 9.9------- 60.8----
2024-05-17 02:30 pmSSW 8.9 9.9----29.93- 61.9 60.8----
2024-05-17 02:24 pmSSW 8.9 11.1----29.94- 62.2 60.6----
2024-05-17 02:18 pm SW 9.9 9.9----29.93- 62.4 60.6----
2024-05-17 02:12 pm SW 9.9 11.1----29.93- 62.2 60.4----
2024-05-17 02:06 pm SW 8.9 9.9----29.94- 62.4 60.3----
2024-05-17 02:00 pm SW 9.9 9.9----29.93-0.01 62.2 60.1----
2024-05-17 01:54 pm SW 8.9 12.0----29.93- 63.0 59.9----
2024-05-17 01:48 pm SW 9.9 11.1----29.93-- 59.5----
2024-05-17 01:42 pm SW 8.9 11.1----29.93-- 59.2----
2024-05-17 01:36 pmSSW 8.9 11.1----29.93-- 59.0----
2024-05-17 01:30 pm S 6.0 8.0----29.93- 63.1 58.6----
2024-05-17 01:24 pmSSW 7.0 9.9----29.93- 65.1 58.5----
2024-05-17 01:18 pm S 4.1 8.9----29.93- 63.9 58.3----
2024-05-17 01:12 pmSSW 8.0 8.9----29.93- 64.9 58.1----
2024-05-17 01:06 pmSSW 6.0 8.0----29.94- 65.8 57.9----
2024-05-17 01:00 pm E 1.9 9.9----29.94-0.01 71.6 57.7----
2024-05-17 12:54 pm NE 6.0 12.0----29.94- 71.2 57.6----
2024-05-17 12:48 pm NE 5.1 12.0----29.94- 71.1 57.6----
2024-05-17 12:42 pmNNE 5.1 8.0----29.94- 71.1 57.6----
2024-05-17 12:36 pmNNE 7.0 9.9----29.94- 69.8 57.6----
2024-05-17 12:30 pm NE 6.0 8.9----29.94- 71.2 57.4----
2024-05-17 12:24 pmENE 8.9 14.0----29.94- 70.5 57.4----
2024-05-17 12:18 pm N 8.0 12.0----29.94- 69.1 57.2----
2024-05-17 12:12 pm NE 6.0 9.9----29.94- 70.0 57.2----
2024-05-17 12:06 pm NE 5.1 8.9----29.94- 69.8 57.2----
2024-05-17 12:00 pm NE 4.1 8.9----29.94-0.03 69.6 57.2----
2024-05-17 11:54 amNNE 8.0 14.0----29.94- 68.7 57.2----
2024-05-17 11:48 am NE 8.9 14.0----29.94- 68.5 57.2----
2024-05-17 11:42 am NE 6.0 11.1----29.94- 68.9 57.2----
2024-05-17 11:36 am E 5.1 13.0----29.94- 68.7 57.2----
2024-05-17 11:30 amENE 5.1 11.1----29.94- 68.2 57.2----
2024-05-17 11:24 am NE 5.1 12.0----29.94- 67.8 57.2----
2024-05-17 11:18 amNNE 8.0 13.0----29.95- 66.9 57.2----
2024-05-17 11:12 am NE 7.0 15.0----29.95- 66.7 57.2----
2024-05-17 11:06 amNNE 11.1 14.0----29.95- 66.0 57.2----
2024-05-17 11:00 amNNE 11.1 15.9----29.95-0.03 65.5 57.2----
2024-05-17 10:54 am N 8.9 15.0----29.94- 65.3 57.2----
2024-05-17 10:48 amNNE 8.9 15.0----29.94- 65.1 57.2----
2024-05-17 10:42 am NE 6.0 13.0----29.94- 65.5 57.2----
2024-05-17 10:36 amNNE 8.9 14.0----29.94- 64.9 57.2----
2024-05-17 10:30 amNNE 11.1 14.0----29.94- 64.8 57.2----
2024-05-17 10:24 amNNE 8.9 14.0----29.94- 64.8 57.2----
2024-05-17 10:18 am NE 8.9 14.0----29.95- 64.9 57.2----
2024-05-17 10:12 am NE 8.9 14.0----29.95- 64.6 57.0----
2024-05-17 10:06 am NE 8.0 13.0----29.96- 64.8 57.0----
2024-05-17 10:00 amNNE 9.9 14.0----29.96+0.00 63.9 57.0----
2024-05-17 09:54 amNNE 11.1 14.0----29.96- 63.5 57.0----
2024-05-17 09:48 amNNE 6.0 13.0----29.96- 63.5 57.0----
2024-05-17 09:42 amNNE 9.9 14.0----29.96- 63.1 57.0----
2024-05-17 09:36 amNNE 8.0 15.0----29.96- 62.8 57.0----
2024-05-17 09:30 amNNE 9.9 15.9----29.96- 62.8 57.0----
2024-05-17 09:24 amNNE 7.0 14.0----29.97- 62.6 57.0----
2024-05-17 09:18 amNNE 11.1 14.0----29.97- 62.1 57.0----
2024-05-17 09:12 amNNE 9.9 14.0----29.98- 61.9 57.0----
2024-05-17 09:06 amNNE 8.9 15.9----29.98- 61.7 57.0----
2024-05-17 09:00 amNNE 8.0 13.0----29.98+0.02 61.7 57.0----
2024-05-17 08:54 amNNE 9.9 14.0----29.97- 61.5 57.0----
2024-05-17 08:48 am NE 8.9 13.0----29.97- 61.5 57.0----
2024-05-17 08:42 amNNE 8.0 13.0----29.97- 61.2 57.0----
2024-05-17 08:36 amNNE 8.9 13.0----29.98- 60.8 57.0----
2024-05-17 08:30 amNNE 8.9 12.0----29.98- 60.6 57.0----
2024-05-17 08:24 amNNE 8.9 12.0----29.98- 60.4 57.0----
2024-05-17 08:18 amNNE 9.9 13.0----29.98- 60.3 57.0----
2024-05-17 08:12 amNNE 7.0 11.1----29.97- 59.9 57.0----
2024-05-17 08:06 amNNE 8.0 11.1----29.97- 59.5 57.0----
2024-05-17 08:00 amNNE 8.0 13.0----29.97+0.06 59.2 57.0----
2024-05-17 07:54 amNNE 8.0 11.1----29.97- 59.0 57.0----
2024-05-17 07:48 amNNE 5.1 12.0----29.96- 58.8 57.0----
2024-05-17 07:42 am NE 6.0 12.0----29.96- 58.6 57.0----
2024-05-17 07:36 am NE 4.1 13.0----29.96- 58.5 57.0----
2024-05-17 07:30 amNNE 7.0 11.1----29.96- 58.3 57.0----
2024-05-17 07:24 am NE 7.0 12.0----29.96- 58.1 57.0----
2024-05-17 07:18 am NE 6.0 14.0----29.96- 58.1 57.0----
2024-05-17 07:12 amNNE 8.0 15.9----29.96- 57.9 57.0----
2024-05-17 07:06 amNNE 7.0 14.0----29.96- 58.1 57.0----
2024-05-17 07:00 am NE 8.9 14.0----29.95+0.07 58.1 57.0----
2024-05-17 06:54 am NE 8.9 17.1----29.95- 58.1 57.0----
2024-05-17 06:48 am NE 8.0 14.0----29.95- 58.1 57.0----
2024-05-17 06:42 am NE 8.9 14.0----29.95- 58.1 57.0----
2024-05-17 06:36 am NE 7.0 14.0----29.96- 58.3 57.0----
2024-05-17 06:30 amNNE 7.0 13.0----29.96- 58.1 57.0----
2024-05-17 06:24 am NE 5.1 9.9----29.96- 58.1 57.0----
2024-05-17 06:18 am NE 7.0 13.0----29.96- 58.1 57.0----
2024-05-17 06:12 am NE 7.0 12.0----29.96- 58.1 57.0----
2024-05-17 06:06 amNNE 8.9 12.0----29.96- 58.1 57.0----
2024-05-17 06:00 amNNE 8.0 12.0----29.95+0.07 58.3 57.0----
2024-05-17 05:54 amNNE 8.0 11.1----29.95- 58.3 57.0----
2024-05-17 05:48 amNNE 7.0 12.0----29.95- 58.3 57.0----
2024-05-17 05:42 amNNE 8.9 14.0----29.95- 58.3 57.0----
2024-05-17 05:36 amNNE 8.0 13.0----29.94- 58.1 57.0----
2024-05-17 05:30 amNNE 8.9 13.0----29.94- 58.1 57.0----
2024-05-17 05:24 amNNE 9.9 12.0----29.94- 58.1 57.0----
2024-05-17 05:18 amNNE 9.9 13.0----29.93- 58.1 57.0----
2024-05-17 05:12 amNNE 8.9 13.0----29.93- 57.9 57.0----
2024-05-17 05:06 amNNE 8.0 14.0----29.92- 57.9 57.0----
2024-05-17 05:00 amNNE 9.9 14.0----29.91- 58.1 57.0----
2024-05-17 04:54 amNNE 8.9 13.0----29.91- 57.9 57.0----
2024-05-17 04:48 amNNE 8.0 12.0----29.91- 58.1 57.0----
2024-05-17 04:42 amNNE 8.0 12.0----29.90- 57.9 57.0----
2024-05-17 04:36 amNNE 8.9 12.0----29.90- 57.9 57.0----
2024-05-17 04:30 amNNE 6.0 11.1----29.89- 57.9 57.0----
2024-05-17 04:24 amNNE 9.9 12.0----29.89- 58.1 57.0----
2024-05-17 04:18 amNNE 7.0 12.0----29.89- 58.3 57.0----
2024-05-17 04:12 amNNE 9.9 13.0----29.89- 58.3 57.0----
2024-05-17 04:06 amNNE 7.0 12.0----29.88- 58.5 57.0----
2024-05-17 04:00 amNNE 7.0 12.0----29.88+0.00 58.5 57.0----
2024-05-17 03:54 am NE 8.0 12.0----29.88- 58.6 57.0----
2024-05-17 03:48 am NE 8.0 12.0----29.88- 58.6 57.0----
2024-05-17 03:42 am NE 9.9 15.9----29.88- 58.8 57.0----
2024-05-17 03:36 am NE 7.0 14.0----29.88- 58.6 57.0----
2024-05-17 03:30 am NE 7.0 11.1----29.88- 58.6 57.0----
2024-05-17 03:24 am NE 8.9 12.0----29.88- 58.8 57.0----
2024-05-17 03:18 am NE 7.0 11.1----29.88- 58.8 57.0----
2024-05-17 03:12 am NE 7.0 14.0----29.88- 58.8 57.0----
2024-05-17 03:06 amNNE 8.9 14.0----29.88- 58.8 57.0----
2024-05-17 03:00 am NE 8.0 15.0----29.88-0.02 58.8 57.2----
2024-05-17 02:54 am NE 6.0 15.0----29.87- 58.6 57.2----
2024-05-17 02:48 am NE 8.9 14.0----29.87- 58.8 57.0----
2024-05-17 02:42 am NE 11.1 15.0----29.87- 58.8 57.0----
2024-05-17 02:36 am NE 11.1 15.9----29.87- 58.6 57.0----
2024-05-17 02:30 am NE 11.1 15.9----29.87- 58.8 57.0----
2024-05-17 02:24 am NE 9.9 18.1----29.87- 58.8 57.0----
2024-05-17 02:18 am NE 8.9 14.0----29.87- 59.0 57.0----
2024-05-17 02:12 am NE 7.0 13.0----29.88- 58.8 57.0----
2024-05-17 02:06 am NE 8.0 13.0----29.87- 59.0 57.0----
2024-05-17 02:00 am NE 8.9 12.0------ 59.0 57.2----
2024-05-17 01:54 am NE 8.0 14.0------ 59.2 57.2----
2024-05-17 01:48 am NE 8.9 12.0----29.87- 59.2 57.2----
2024-05-17 01:42 am NE 8.0 14.0----29.88- 59.2 57.0----
2024-05-17 01:36 am NE 7.0 15.0----29.88- 59.2 57.0----
2024-05-17 01:30 amNNE 8.0 15.9----29.88- 59.2 57.0----
2024-05-17 01:24 am NE 8.0 13.0----29.88- 59.4 57.0----
2024-05-17 01:18 am NE 5.1 13.0----29.88- 59.4 57.0----
2024-05-17 01:12 am NE 8.9 13.0----29.89- 59.4 57.0----
2024-05-17 01:06 amNNE 5.1 11.1----29.89- 59.5 57.0----
2024-05-17 01:00 amNNE 6.0 15.0----29.89+0.01 59.5 57.0----
2024-05-17 12:54 am NE 9.9 14.0----29.89- 59.7 57.0----
2024-05-17 12:48 am NE 7.0 14.0----29.89- 59.7 57.0----
2024-05-17 12:42 am NE 8.0 14.0----29.89- 59.7 57.0----
2024-05-17 12:36 am NE 5.1 12.0----29.89- 59.7 57.0----
2024-05-17 12:30 amNNE 5.1 12.0----29.89- 59.7 57.0----
2024-05-17 12:24 am NE 6.0 14.0----29.89- 59.9 57.0----
2024-05-17 12:18 am NE 7.0 15.0----29.89- 59.7 57.0----
2024-05-17 12:12 am NE 11.1 15.9----29.89- 59.9 57.0----
2024-05-17 12:06 am NE 7.0 14.0----29.89- 59.9 57.0----
2024-05-17 12:00 am NE 6.0 14.0----29.90+0.03 59.9 57.0----
2024-05-16 11:54 pm NE 6.0 9.9----29.89- 59.9 57.0----
2024-05-16 11:48 pm NE 8.0 13.0----29.89- 59.9 57.0----
2024-05-16 11:42 pmNNE 5.1 13.0----29.89- 59.7 57.0----
2024-05-16 11:36 pm NE 9.9 15.0----29.89- 59.9 57.0----
2024-05-16 11:30 pm NE 8.0 14.0----29.89- 59.9 57.0----
2024-05-16 11:24 pm NE 6.0 12.0----29.89- 59.9 57.0----
2024-05-16 11:18 pm NE 7.0 11.1----29.89- 59.9 57.0----
2024-05-16 11:12 pmNNE 7.0 14.0----29.89- 60.1 57.0----
2024-05-16 11:06 pm NE 8.0 12.0----29.89- 60.3 57.0----
2024-05-16 11:00 pm NE 6.0 11.1----29.89+0.04 60.3 57.0----
2024-05-16 10:54 pm NE 5.1 15.0----29.89- 60.3 57.0----
2024-05-16 10:48 pm NE 6.0 12.0----29.89- 60.4 57.0----
2024-05-16 10:42 pmENE 7.0 13.0----29.88- 60.8 57.0----
2024-05-16 10:36 pmENE 7.0 12.0----29.88- 60.8 57.0----
2024-05-16 10:30 pm NE 7.0 13.0----29.88- 60.8 57.0----
2024-05-16 10:24 pm NE 6.0 14.0----29.88- 60.8 57.0----
2024-05-16 10:18 pmNNE 8.0 14.0----29.88- 61.0 57.0----
2024-05-16 10:12 pm NE 7.0 12.0----29.88- 61.0 57.0----
2024-05-16 10:06 pm NE 8.0 13.0----29.88- 61.0 57.0----
2024-05-16 10:00 pm NE 9.9 17.1----29.88+0.05 61.2 57.0----
2024-05-16 09:54 pmNNE 11.1 15.9----29.88- 61.2 57.0----
2024-05-16 09:48 pmNNE 11.1 15.0----29.88- 61.2 57.0----
2024-05-16 09:42 pmNNE 11.1 15.0----29.88- 61.3 57.2----
2024-05-16 09:36 pm NE 8.0 15.0----29.88- 61.7 57.2----
2024-05-16 09:30 pm NE 6.0 12.0----29.88- 61.5 57.2----
2024-05-16 09:24 pm NE 7.0 12.0----29.88- 61.7 57.2----
2024-05-16 09:18 pmNNE 7.0 13.0----29.88- 61.5 57.2----
2024-05-16 09:12 pm NE 7.0 13.0----29.88- 61.5 57.2----
2024-05-16 09:06 pm NE 8.9 15.0----29.87- 61.5 57.2----
2024-05-16 09:00 pm NE 7.0 12.0----29.87+0.06 61.5 57.2----
2024-05-16 08:54 pm NE 8.0 12.0----29.86- 61.7 57.2----
2024-05-16 08:48 pm NE 7.0 12.0----29.86- 61.7 57.0----
2024-05-16 08:42 pmENE 8.0 14.0----29.86- 62.1 57.0----
2024-05-16 08:36 pmENE 8.9 15.9----29.86- 62.2 57.0----
2024-05-16 08:30 pmENE 11.1 15.0----29.86- 62.4 56.8----
2024-05-16 08:24 pmENE 8.9 15.9----29.86- 62.4 56.8----
2024-05-16 08:18 pmENE 7.0 12.0----29.86- 62.2 56.8----
2024-05-16 08:12 pm NE 7.0 11.1----29.85- 62.1 56.8----
2024-05-16 08:06 pm NE 6.0 8.9----29.85- 62.2 56.8----
2024-05-16 08:00 pm NE 2.9 8.0----29.85+0.06 62.2 56.8----
2024-05-16 07:54 pmNNE 5.1 8.0----29.84- 62.6 56.8----